GW1995 Weather Reports


time (UTC)temp
C
wind
direction
speed
KPH
gust
KPH
rain 1hr
cm
rain 24hr
cm
rain mn
cm
humidity
%
barometer
mb
20260507144412 7 58 6.4 8.0 0.00 0.00 0.00 45 1012.3
20260507143909 7 60 4.8 9.7 0.00 0.00 0.00 47 1012.3
20260507143407 7 46 1.6 9.7 0.00 0.00 0.00 48 1012.4
20260507142903 7 294 4.8 9.7 0.00 0.00 0.00 50 1012.4
20260507142359 7 241 1.6 4.8 0.00 0.00 0.00 49 1012.3
20260507141856 7 213 3.2 3.2 0.00 0.00 0.00 51 1012.5
20260507141352 7 311 3.2 4.8 0.00 0.00 0.00 50 1012.4
20260507140849 7 277 1.6 3.2 0.00 0.00 0.00 51 1012.6
20260507140346 7 44 4.8 8.0 0.00 0.00 0.00 52 1012.8
20260507135844 6 15 3.2 4.8 0.00 0.00 0.00 55 1012.6
20260507135340 7 48 3.2 4.8 0.00 0.00 0.00 52 1012.5
20260507134838 7 230 0.0 1.6 0.00 0.00 0.00 54 1012.8
20260507134333 7 245 1.6 1.6 0.00 0.00 0.00 54 1012.9
20260507133830 6 304 1.6 1.6 0.00 0.00 0.00 58 1012.8
20260507133325 6 209 0.0 1.6 0.00 0.00 0.00 58 1013.0
20260507132824 5 272 0.0 1.6 0.00 0.00 0.00 61 1012.5
20260507132320 5 237 0.0 1.6 0.00 0.00 0.00 63 1012.9
20260507131818 5 254 1.6 1.6 0.00 0.00 0.00 65 1012.9
20260507131314 4 216 0.0 0.0 0.00 0.00 0.00 68 1012.9
20260507130810 4 216 1.6 1.6 0.00 0.00 0.00 67 1013.0
20260507130308 4 216 0.0 0.0 0.00 0.00 0.00 68 1013.0
20260507125807 3 216 0.0 1.6 0.00 0.00 0.00 69 1012.9
20260507125306 3 216 0.0 0.0 0.00 0.00 0.00 69 1012.9
20260507124801 3 215 0.0 0.0 0.00 0.00 0.00 72 1013.0
20260507124257 2 215 0.0 1.6 0.00 0.00 0.00 73 1013.0
20260507123756 2 215 0.0 1.6 0.00 0.00 0.00 73 1013.1
20260507123253 2 214 0.0 1.6 0.00 0.00 0.00 74 1013.2
20260507122748 1 219 1.6 1.6 0.00 0.00 0.00 75 1013.0
20260507122244 1 219 0.0 1.6 0.00 0.00 0.00 77 1013.0
20260507121740 1 219 0.0 1.6 0.00 0.00 0.00 78 1013.1
20260507121236 0 220 0.0 1.6 0.00 0.00 0.00 79 1013.2
20260507120732 0 220 0.0 1.6 0.00 0.00 0.00 80 1013.0
20260507120230 0 220 0.0 0.0 0.00 0.00 0.00 80 1013.1
20260507115726 0 220 0.0 0.0 0.00 0.00 0.00 81 1013.1
20260507115222 0 220 0.0 0.0 0.00 0.00 0.00 82 1012.9
20260507114717 0 219 0.0 1.6 0.00 0.00 0.00 82 1013.2
20260507114215 0 219 0.0 1.6 0.00 0.00 0.00 83 1013.0
20260507113712 -1 219 0.0 1.6 0.00 0.00 0.00 84 1013.0
20260507113209 -1 219 0.0 1.6 0.00 0.00 0.00 85 1012.9
20260507112707 -1 220 0.0 1.6 0.00 0.00 0.00 86 1012.9
20260507112203 -1 220 0.0 0.0 0.00 0.00 0.00 86 1012.9
20260507111701 -1 220 0.0 0.0 0.00 0.00 0.00 86 1012.8
20260507111158 -1 220 0.0 1.6 0.00 0.00 0.00 86 1013.0
20260507110653 -1 221 0.0 0.0 0.00 0.00 0.00 85 1012.8
20260507110151 -1 221 0.0 0.0 0.00 0.00 0.00 85 1013.0
20260507105647 -1 221 0.0 0.0 0.00 0.00 0.00 85 1012.9
20260507105143 -1 221 1.6 1.6 0.00 0.00 0.00 85 1012.8
20260507104641 -1 221 0.0 1.6 0.00 0.00 0.00 85 1012.8
20260507104137 -1 221 0.0 0.0 0.00 0.00 0.00 85 1012.8
20260507103633 -1 220 1.6 1.6 0.00 0.00 0.00 85 1013.0
20260507103130 -1 220 0.0 0.0 0.00 0.00 0.00 84 1012.5
20260507102626 -1 220 0.0 1.6 0.00 0.00 0.00 84 1012.8
20260507102123 -1 220 1.6 1.6 0.00 0.00 0.00 84 1012.9
20260507101619 -1 220 0.0 0.0 0.00 0.00 0.00 84 1012.8
20260507101115 -1 220 0.0 0.0 0.00 0.00 0.00 84 1012.6
20260507100612 -1 220 0.0 0.0 0.00 0.00 0.00 84 1012.9
20260507100110 -1 220 0.0 0.0 0.00 0.00 0.00 83 1012.9
20260507095608 -1 220 0.0 0.0 0.00 0.00 0.00 83 1012.6
20260507095104 0 220 0.0 1.6 0.00 0.00 0.00 83 1012.9
20260507094600 0 219 0.0 0.0 0.00 0.00 0.00 83 1012.9
20260507094057 0 219 0.0 0.0 0.00 0.00 0.00 83 1012.9
20260507093555 0 219 0.0 0.0 0.00 0.00 0.00 83 1012.6
20260507093054 0 219 0.0 0.0 0.00 0.00 0.00 82 1012.9
20260507092549 0 219 0.0 0.0 0.00 0.00 0.00 82 1012.8
20260507092040 0 219 0.0 0.0 0.00 0.00 0.00 82 1012.8
20260507091537 0 219 0.0 0.0 0.00 0.00 0.00 82 1013.0
20260507091033 0 219 0.0 0.0 0.00 0.00 0.00 81 1012.8
20260507090529 0 219 0.0 0.0 0.00 0.00 0.00 81 1012.9
20260507090026 0 219 0.0 0.0 0.00 0.00 0.00 80 1013.0
20260507085524 0 219 0.0 1.6 0.00 0.00 0.00 80 1013.1
20260507085020 0 219 0.0 0.0 0.00 0.00 0.00 79 1013.1
20260507084517 0 219 0.0 0.0 0.00 0.00 0.00 79 1013.0
20260507084014 0 219 0.0 0.0 0.00 0.00 0.00 78 1013.1
20260507083510 0 219 0.0 0.0 0.00 0.00 0.00 78 1013.1
20260507083007 0 219 0.0 0.0 0.00 0.00 0.00 78 1013.0
20260507082503 0 219 0.0 1.6 0.00 0.00 0.00 78 1013.0
20260507081959 0 219 0.0 1.6 0.00 0.00 0.00 78 1013.2
20260507081455 0 219 0.0 1.6 0.00 0.00 0.00 78 1013.0
20260507080953 0 219 0.0 1.6 0.00 0.00 0.00 77 1013.0
20260507080448 1 219 0.0 1.6 0.00 0.00 0.00 76 1013.0
20260507075944 1 219 0.0 0.0 0.00 0.00 0.00 76 1012.9
20260507075441 1 219 0.0 1.6 0.00 0.00 0.00 76 1013.1
20260507074937 1 219 0.0 1.6 0.00 0.00 0.00 75 1013.2
20260507074434 1 219 0.0 0.0 0.00 0.00 0.00 75 1013.0
20260507073932 1 219 1.6 1.6 0.00 0.00 0.00 76 1013.0
20260507073428 1 219 0.0 1.6 0.00 0.00 0.00 75 1013.2
20260507072925 1 219 0.0 1.6 0.00 0.00 0.00 74 1013.2
20260507072422 1 219 0.0 0.0 0.00 0.00 0.00 73 1013.2
20260507071915 1 219 1.6 1.6 0.00 0.00 0.00 73 1013.2
20260507071411 1 219 1.6 1.6 0.00 0.00 0.00 72 1013.3
20260507070907 1 219 1.6 1.6 0.00 0.00 0.00 72 1013.2
20260507070405 2 220 1.6 1.6 0.00 0.00 0.00 72 1013.5
20260507065901 2 220 0.0 1.6 0.00 0.00 0.00 71 1013.5
20260507065357 2 220 1.6 1.6 0.00 0.00 0.00 70 1013.5
20260507064855 2 220 0.0 1.6 0.00 0.00 0.00 70 1013.5
20260507064353 2 220 0.0 0.0 0.00 0.00 0.00 69 1013.5
20260507063851 2 220 0.0 1.6 0.00 0.00 0.00 69 1013.6
20260507063347 2 220 0.0 1.6 0.00 0.00 0.00 68 1013.5
20260507062844 2 220 0.0 0.0 0.00 0.00 0.00 68 1013.9
20260507062341 2 220 0.0 0.0 0.00 0.00 0.00 67 1013.8
20260507061839 3 220 0.0 1.6 0.00 0.00 0.00 66 1013.9
20260507061337 3 220 0.0 1.6 0.00 0.00 0.00 66 1013.7
20260507060835 3 220 0.0 1.6 0.00 0.00 0.00 65 1014.0
20260507060332 3 220 0.0 1.6 0.00 0.00 0.00 64 1014.0
20260507055828 3 220 0.0 0.0 0.00 0.00 0.00 64 1013.7
20260507055323 3 220 0.0 1.6 0.00 0.00 0.00 64 1013.7
20260507054820 3 220 0.0 1.6 0.00 0.00 0.00 64 1013.8
20260507054316 3 220 0.0 1.6 0.00 0.00 0.00 64 1013.8
20260507053814 3 220 0.0 1.6 0.00 0.00 0.00 64 1014.0
20260507053311 3 221 0.0 1.6 0.00 0.00 0.00 64 1013.8
20260507052810 3 218 1.6 1.6 0.00 0.00 0.00 63 1013.9
20260507052307 3 217 1.6 1.6 0.00 0.00 0.00 64 1014.0
20260507051804 3 222 0.0 1.6 0.00 0.00 0.00 64 1014.0
20260507051302 3 223 0.0 1.6 0.00 0.00 0.00 63 1013.9
20260507050758 3 223 0.0 1.6 0.00 0.00 0.00 63 1014.1
20260507050254 3 223 0.0 1.6 0.00 0.00 0.00 62 1013.9
20260507045751 3 223 0.0 0.0 0.00 0.00 0.00 63 1014.0
20260507045247 3 223 0.0 0.0 0.00 0.00 0.00 63 1013.9
20260507044745 3 223 0.0 0.0 0.00 0.00 0.00 62 1014.1
20260507044241 3 223 0.0 1.6 0.00 0.00 0.00 62 1014.1
20260507043737 3 223 0.0 1.6 0.00 0.00 0.00 62 1014.0
20260507043234 3 223 0.0 0.0 0.00 0.00 0.00 62 1014.2
20260507042731 3 223 0.0 1.6 0.00 0.00 0.00 62 1014.2
20260507042226 3 219 1.6 1.6 0.00 0.00 0.00 62 1014.3
20260507041724 3 223 0.0 1.6 0.00 0.00 0.00 61 1014.2
20260507041221 3 223 0.0 1.6 0.00 0.00 0.00 61 1014.5
20260507040718 3 225 0.0 1.6 0.00 0.00 0.00 62 1014.3
20260507040214 3 226 0.0 1.6 0.00 0.00 0.00 64 1014.3
20260507035710 3 231 1.6 1.6 0.00 0.00 0.00 63 1014.3
20260507035205 3 231 0.0 1.6 0.00 0.00 0.00 63 1014.4
20260507034702 3 231 0.0 0.0 0.00 0.00 0.00 62 1014.5
20260507034200 3 231 0.0 1.6 0.00 0.00 0.00 62 1014.4
20260507033658 3 231 0.0 1.6 0.00 0.00 0.00 62 1014.4
20260507033155 3 232 0.0 0.0 0.00 0.00 0.00 61 1014.6
20260507032653 3 232 0.0 1.6 0.00 0.00 0.00 61 1014.6
20260507032148 3 232 0.0 1.6 0.00 0.00 0.00 61 1014.6
20260507031645 3 232 0.0 1.6 0.00 0.00 0.00 62 1014.6
20260507031142 3 231 1.6 1.6 0.00 0.00 0.00 61 1014.7
20260507030639 3 231 0.0 1.6 0.00 0.00 0.00 60 1014.8
20260507030137 3 231 0.0 1.6 0.00 0.00 0.00 61 1014.7
20260507025633 3 232 0.0 0.0 0.00 0.00 0.00 60 1014.6
20260507025130 3 231 0.0 1.6 0.00 0.00 0.00 59 1014.7
20260507024628 3 232 0.0 1.6 0.00 0.00 0.00 58 1014.6
20260507024125 3 231 0.0 1.6 0.00 0.00 0.00 58 1014.8
20260507023621 4 232 0.0 1.6 0.00 0.00 0.00 57 1014.6
20260507023119 4 232 0.0 1.6 0.00 0.00 0.00 56 1014.5
20260507022615 4 232 0.0 0.0 0.00 0.00 0.00 55 1014.6
20260507022110 5 232 0.0 0.0 0.00 0.00 0.00 55 1014.6
20260507021607 5 232 0.0 0.0 0.00 0.00 0.00 54 1014.6
20260507021103 5 232 0.0 1.6 0.00 0.00 0.00 54 1014.7
20260507020602 5 232 0.0 1.6 0.00 0.00 0.00 53 1014.6
20260507020057 5 247 0.0 0.0 0.00 0.00 0.00 52 1014.6
20260507015556 5 247 0.0 1.6 0.00 0.00 0.00 52 1014.7
20260507015053 5 247 0.0 1.6 0.00 0.00 0.00 51 1014.6
20260507014550 6 247 1.6 1.6 0.00 0.00 0.00 50 1014.6
20260507014045 6 244 1.6 1.6 0.00 0.00 0.00 49 1014.5
20260507013542 6 242 0.0 1.6 0.00 0.00 0.00 49 1014.5
20260507013039 6 247 1.6 3.2 0.00 0.00 0.00 48 1014.6
20260507012536 6 234 1.6 4.8 0.00 0.00 0.00 48 1014.7
20260507012027 6 246 1.6 3.2 0.00 0.00 0.00 47 1014.6
20260507011524 6 245 0.0 1.6 0.00 0.00 0.00 48 1014.6
20260507011020 7 249 1.6 3.2 0.00 0.00 0.00 48 1014.6
20260507010515 7 241 1.6 3.2 0.00 0.00 0.00 48 1014.7
20260507010012 7 241 1.6 1.6 0.00 0.00 0.00 48 1014.8
20260507005509 7 271 1.6 4.8 0.00 0.00 0.00 48 1014.6
20260507005005 7 212 3.2 4.8 0.00 0.00 0.00 47 1014.8
20260507004502 7 304 4.8 8.0 0.00 0.00 0.00 47 1014.6
20260507004000 7 255 1.6 1.6 0.00 0.00 0.00 48 1014.7
20260507003455 7 266 0.0 4.8 0.00 0.00 0.00 47 1014.8
20260507002950 7 253 1.6 4.8 0.00 0.00 0.00 47 1014.6
20260507002447 7 319 3.2 8.0 0.00 0.00 0.00 47 1014.8
20260507001944 7 306 3.2 9.7 0.00 0.00 0.00 48 1014.8
20260507001440 7 270 4.8 12.9 0.00 0.00 0.00 47 1014.7
20260507000938 7 300 3.2 4.8 0.00 0.00 0.00 47 1014.7
20260507000435 7 305 4.8 9.7 0.00 0.00 0.00 46 1015.0
20260506235929 7 230 3.2 4.8 0.00 0.00 0.00 47 1014.9
20260506235427 7 288 1.6 11.3 0.00 0.00 0.00 48 1014.8
20260506234921 7 336 1.6 9.7 0.00 0.00 0.00 48 1014.8
20260506234419 7 257 4.8 8.0 0.00 0.00 0.00 47 1014.9
20260506233912 7 304 3.2 8.0 0.00 0.00 0.00 47 1014.9
20260506233407 7 273 3.2 8.0 0.00 0.00 0.00 47 1014.8
20260506232905 7 325 4.8 8.0 0.00 0.00 0.00 48 1015.1
20260506232401 7 310 1.6 3.2 0.00 0.00 0.00 48 1015.1
20260506231856 7 249 1.6 4.8 0.00 0.00 0.00 48 1015.0
20260506231354 7 254 1.6 3.2 0.00 0.00 0.00 48 1015.0
20260506230852 7 260 4.8 4.8 0.00 0.00 0.00 48 1015.3
20260506230348 6 269 1.6 4.8 0.00 0.00 0.00 48 1015.0
20260506225844 6 280 3.2 8.0 0.00 0.00 0.00 47 1015.1
20260506225342 6 289 3.2 11.3 0.00 0.00 0.00 48 1015.1
20260506224839 7 300 3.2 4.8 0.00 0.00 0.00 48 1015.1
20260506224336 7 287 4.8 8.0 0.00 0.00 0.00 48 1015.1
20260506223832 7 313 1.6 11.3 0.00 0.00 0.00 48 1015.1
20260506223327 7 281 3.2 4.8 0.00 0.00 0.00 47 1015.2
20260506222825 6 233 1.6 4.8 0.00 0.00 0.00 48 1015.2
20260506222320 6 270 4.8 4.8 0.00 0.00 0.00 48 1015.3
20260506221818 6 331 4.8 9.7 0.00 0.00 0.00 49 1015.2
20260506221316 6 249 3.2 4.8 0.00 0.00 0.00 48 1015.1
20260506220813 6 237 1.6 8.0 0.00 0.00 0.00 49 1015.1
20260506220308 7 305 3.2 4.8 0.00 0.00 0.00 49 1015.4
20260506215805 6 247 1.6 3.2 0.00 0.00 0.00 50 1015.2
20260506215301 6 199 3.2 9.7 0.00 0.00 0.00 49 1015.6
20260506214756 6 317 3.2 11.3 0.00 0.00 0.00 49 1015.3
20260506214254 6 260 3.2 4.8 0.00 0.00 0.00 49 1015.3
20260506213752 6 260 4.8 8.0 0.00 0.00 0.00 49 1015.4
20260506213249 6 268 1.6 4.8 0.00 0.00 0.00 49 1015.4
20260506212746 6 303 4.8 9.7 0.00 0.00 0.00 49 1015.6
20260506212242 6 325 4.8 16.1 0.00 0.00 0.00 49 1015.5
20260506211737 6 279 4.8 4.8 0.00 0.00 0.00 49 1015.5
20260506211234 6 287 6.4 8.0 0.00 0.00 0.00 48 1015.5
20260506210731 6 264 4.8 9.7 0.00 0.00 0.00 49 1015.6
20260506210228 6 227 4.8 9.7 0.00 0.00 0.00 49 1015.7
20260506205725 6 290 3.2 4.8 0.00 0.00 0.00 49 1015.7
20260506205220 6 274 4.8 9.7 0.00 0.00 0.00 49 1015.6
20260506204717 6 297 6.4 12.9 0.00 0.00 0.00 49 1015.5
20260506204214 6 302 3.2 8.0 0.00 0.00 0.00 49 1015.6
20260506203712 6 279 3.2 4.8 0.00 0.00 0.00 49 1015.5
20260506203209 6 292 3.2 4.8 0.00 0.00 0.00 48 1015.5
20260506202702 6 237 4.8 11.3 0.00 0.00 0.00 49 1015.6
20260506202157 6 282 6.4 8.0 0.00 0.00 0.00 49 1015.7
20260506201655 6 222 4.8 8.0 0.00 0.00 0.00 48 1015.6
20260506201151 6 277 4.8 9.7 0.00 0.00 0.00 48 1015.7
20260506200648 6 222 3.2 3.2 0.00 0.00 0.00 48 1015.7
20260506200144 6 274 4.8 11.3 0.00 0.00 0.00 49 1015.6
20260506195641 6 260 3.2 14.5 0.00 0.00 0.00 49 1015.6
20260506195137 6 281 6.4 12.9 0.00 0.00 0.00 48 1015.6
20260506194635 6 285 1.6 4.8 0.00 0.00 0.00 49 1015.8
20260506194131 6 265 3.2 8.0 0.00 0.00 0.00 49 1015.7
20260506193629 6 289 4.8 9.7 0.00 0.00 0.00 49 1015.8
20260506193126 6 255 4.8 11.3 0.00 0.00 0.00 48 1015.7
20260506192623 6 272 1.6 9.7 0.00 0.00 0.00 49 1015.7
20260506192118 6 227 4.8 8.0 0.00 0.00 0.00 48 1015.8
20260506191616 6 245 3.2 8.0 0.00 0.00 0.00 48 1015.9
20260506191111 6 274 3.2 11.3 0.00 0.00 0.00 48 1015.9
20260506190609 6 226 8.0 9.7 0.00 0.00 0.00 48 1015.7
20260506190106 6 261 4.8 11.3 0.00 0.00 0.00 49 1015.7
20260506185603 6 246 1.6 11.3 0.00 0.00 0.00 47 1015.7
20260506185059 6 212 1.6 9.7 0.00 0.00 0.00 48 1015.8
20260506184557 6 274 4.8 9.7 0.00 0.00 0.00 49 1016.0
20260506184054 6 302 3.2 9.7 0.00 0.00 0.00 49 1015.7
20260506183550 6 241 9.7 11.3 0.00 0.00 0.00 49 1015.6
20260506183046 6 221 4.8 12.9 0.00 0.00 0.00 49 1015.7
20260506182544 6 246 9.7 12.9 0.00 0.00 0.00 48 1015.9
20260506182041 6 295 4.8 8.0 0.00 0.00 0.00 48 1015.9
20260506181539 6 261 4.8 11.3 0.00 0.00 0.00 48 1016.0
20260506181035 5 221 3.2 12.9 0.00 0.00 0.00 49 1015.8
20260506180532 6 275 6.4 12.9 0.00 0.00 0.00 49 1015.9
20260506180029 5 240 3.2 8.0 0.00 0.00 0.00 49 1016.1
20260506175525 5 235 4.8 11.3 0.00 0.00 0.00 49 1015.9
20260506175022 5 283 6.4 12.9 0.00 0.00 0.00 50 1016.1
20260506174520 5 271 3.2 11.3 0.00 0.00 0.00 50 1016.1
20260506174016 5 313 4.8 8.0 0.00 0.00 0.00 49 1016.0
20260506173514 5 258 6.4 8.0 0.00 0.00 0.00 50 1016.2
20260506173011 5 297 3.2 11.3 0.00 0.00 0.00 49 1016.2
20260506172508 5 257 4.8 11.3 0.00 0.00 0.00 49 1016.1
20260506172004 5 261 3.2 9.7 0.00 0.00 0.00 50 1016.2
20260506171501 5 268 6.4 12.9 0.00 0.00 0.00 49 1016.0
20260506170958 5 254 1.6 9.7 0.00 0.00 0.00 50 1016.1
20260506170455 5 303 3.2 12.9 0.00 0.00 0.00 49 1016.2
20260506165948 5 273 4.8 8.0 0.00 0.00 0.00 49 1016.4
20260506165446 5 281 4.8 12.9 0.00 0.00 0.00 49 1016.2
20260506164936 5 229 6.4 16.1 0.00 0.00 0.00 49 1016.4
20260506164433 5 263 4.8 11.3 0.00 0.00 0.00 50 1016.2
20260506163931 5 291 3.2 16.1 0.00 0.00 0.00 50 1016.4
20260506163426 5 275 3.2 14.5 0.00 0.00 0.00 50 1016.1
20260506162921 5 258 6.4 9.7 0.00 0.00 0.00 50 1016.1
20260506162418 5 215 4.8 12.9 0.00 0.00 0.00 50 1016.2
20260506161910 5 183 6.4 11.3 0.00 0.00 0.00 50 1016.1
20260506161408 5 336 11.3 14.5 0.00 0.00 0.00 50 1015.9
20260506160904 5 314 8.0 9.7 0.00 0.00 0.00 49 1016.1
20260506160401 5 301 8.0 9.7 0.00 0.00 0.00 50 1016.1
20260506155900 5 269 4.8 8.0 0.00 0.00 0.00 49 1016.1
20260506155357 5 282 8.0 11.3 0.00 0.00 0.00 49 1016.1
20260506153519 5 263 3.2 14.5 0.00 0.00 0.00 49 1015.9
20260506153017 5 216 8.0 12.9 0.00 0.00 0.00 49 1015.9
20260506152514 5 267 8.0 11.3 0.00 0.00 0.00 49 1016.0
20260506152012 5 261 4.8 8.0 0.00 0.00 0.00 49 1015.9
20260506151509 5 274 8.0 20.9 0.00 0.00 0.00 50 1015.9
20260506151006 5 290 4.8 9.7 0.00 0.00 0.00 50 1016.0
20260506150502 5 254 1.6 14.5 0.00 0.00 0.00 49 1016.1
20260506145959 5 218 4.8 9.7 0.00 0.00 0.00 51 1015.9
20260506145456 5 292 1.6 9.7 0.00 0.00 0.00 50 1015.7
20260506144954 5 289 6.4 11.3 0.00 0.00 0.00 50 1016.0